Simultaneous Nadir Overpasses (SNOs) Predictions

Prediction of SNOs between NOAA-20 and METOP-B Satellite Orbit:

Table of predicted SNOs for the next 14.0 days since TLE Epoch: 7/10/2021
Index Date (NOAA-20) Time (NOAA-20) Lat,Lon (NOAA-20) SZA (NOAA-20 ) Date (METOP-B) Time (METOP-B) Lat,Lon (METOP-B) SZA (METOP-B ) Distance(km) Time Diff (sec)
1 07/23/2021 21:15:40 -73.44, 31.36 126.17 07/23/2021 21:16:47 -73.39, 34.20 126.39 90.23 67
2 07/23/2021 22:06:22 73.25,-160.92 53.64 07/23/2021 22:07:30 73.21,-158.85 53.47 66.46 68
3 07/23/2021 22:57:04 -73.14, 6.64 126.48 07/23/2021 22:58:14 -73.12, 8.26 126.62 52.25 70
4 07/23/2021 23:47:46 72.95, 174.35 53.32 07/23/2021 23:48:58 72.89, 175.11 53.20 25.81 72
5 07/24/2021 00:38:28 -72.84, -18.10 126.80 07/24/2021 00:39:42 -72.79, -17.77 126.88 12.25 74
6 07/24/2021 01:29:11 72.71, 149.50 53.06 07/24/2021 01:30:23 72.72, 149.41 53.06 3.14 72
7 07/24/2021 02:19:56 -72.75, -43.27 126.89 07/24/2021 02:21:05 -72.72, -43.25 126.93 3.00 69
8 07/24/2021 03:10:41 72.71, 124.11 53.08 07/24/2021 03:11:45 72.70, 124.03 53.06 3.07 64



Historial Predications of SNOs between NOAA-20 and METOP-B
